This demonstration page uses our WeatherBlox Daily Observations layout. Learn more.

Left ArrowRight Arrow

39.51506, -84.39828

Hourly Observations for September 9, 2015

Temp ( °F °C ) Dew Point ( °F °C ) Humidity (%) Winds ( mph kmh ) Pressure ( in mb ) Visibility ( mi km ) Precip ( " mm )
12:20 am 00:20 Clear 72 22.3 68 20 87 87 Calm 29.88 1012 10 16.0934 0 0
12:35 am 00:35 Clear 71 21.6 67 19.2 86 86 Calm 29.88 1012 10 16.0934 0 0
12:55 am 00:55 Clear 70 21.1 66 18.8 87 87 Calm 29.88 1012 10 16.0934 0 0
1:15 am 01:15 Clear 71 21.6 67 19.5 88 88 Calm 29.88 1012 10 16.0934 0 0
1:35 am 01:35 Clear 69 20.8 65 18.6 87 87 Calm 29.88 1012 10 16.0934 0 0
1:55 am 01:55 Clear 69 20.8 66 18.7 88 88 Calm 29.88 1012 10 16.0934 0 0
2:15 am 02:15 Clear 69 20.8 65 18.5 87 87 Calm 29.91 1013 10 16.0934 0 0
2:35 am 02:35 Mostly Cloudy 74 23.6 69 20.4 82 82 Calm 29.91 1013 10 16.0934 0 0
2:55 am 02:55 Mostly Cloudy 74 23.6 68 20.2 81 81 Calm 29.91 1013 10 16.0934 0 0
3:15 am 03:15 Partly Cloudy 71 21.8 67 19.2 85 85 Calm 29.88 1012 10 16.0934 0 0
3:35 am 03:35 Clear 69 20.8 65 18.6 87 87 Calm 29.91 1013 10 16.0934 0 0
3:55 am 03:55 Clear 69 20.8 66 18.7 88 88 Calm 29.91 1013 10 16.0934 0 0
4:15 am 04:15 Partly Cloudy 69 20.8 66 18.8 88 88 Calm 29.91 1013 10 16.0934 0 0
4:35 am 04:35 Partly Cloudy 69 20.8 66 18.9 89 89 Calm 29.91 1013 10 16.0934 0 0
4:55 am 04:55 Partly Cloudy 69 20.8 66 19 90 90 Calm 29.91 1013 7 11.26538 0 0
5:15 am 05:15 Clear with Mist and Fog 69 20.8 66 19 90 90 Calm 29.91 1013 5 8.0467 0 0
5:35 am 05:35 Clear with Mist and Fog 69 20.8 66 19 90 90 Calm 29.91 1013 2.5 4.02335 0 0
5:55 am 05:55 Clear with Mist and Fog 69 20.8 66 19 90 90 Calm 29.91 1013 4 6.43736 0 0
6:15 am 06:15 Clear with Mist and Fog 69 20.8 66 19.1 90 90 Calm 29.91 1013 5 8.0467 0 0
6:35 am 06:35 Partly Cloudy with Mist and Fog 69 20.8 66 19.1 90 90 Calm 29.91 1013 5 8.0467 0 0
6:55 am 06:55 Partly Cloudy 69 20.8 66 19.1 90 90 Calm 29.91 1013 10 16.0934 0 0
7:15 am 07:15 Partly Cloudy 69 20.8 66 19.1 90 90 Calm 29.91 1013 7 11.26538 0 0
7:35 am 07:35 Partly Cloudy 69 20.8 66 19.1 90 90 Calm 29.91 1013 10 16.0934 0 0
7:55 am 07:55 Partly Cloudy 69 20.8 66 19.1 90 90 Calm 29.94 1014 10 16.0934 0 0
8:15 am 08:15 Mostly Cloudy 71 21.7 67 19.7 88 88 Calm 29.94 1014 10 16.0934 0 0
8:35 am 08:35 Cloudy 74 23.6 70 21 85 85 Calm 29.94 1014 10 16.0934 0 0
8:55 am 08:55 Cloudy 74 23.6 69 20.3 82 82 Calm 29.94 1014 10 16.0934 0 0
9:15 am 09:15 Partly Cloudy 74 23.6 67 19.7 79 79 Calm 29.94 1014 10 16.0934 0 0
9:35 am 09:35 Partly Cloudy 74 23.6 67 19.5 78 78 Calm 29.94 1014 10 16.0934 0 0
9:55 am 09:55 Mostly Cloudy 76 24.4 69 20.4 78 78 WNW 3 6 29.94 1014 10 16.0934 0 0
10:15 am 10:15 Mostly Cloudy 77 25.1 69 20.8 77 77 Calm 29.94 1014 10 16.0934 0 0
10:35 am 10:35 Mostly Cloudy 77 25.1 69 20.7 77 77 Calm 29.94 1014 10 16.0934 0 0
10:55 am 10:55 Mostly Cloudy 77 25.1 69 20.6 76 76 Calm 29.94 1014 10 16.0934 0 0
11:15 am 11:15 Partly Cloudy 77 25.1 68 20.2 74 74 Calm 29.94 1014 10 16.0934 0 0
11:35 am 11:35 Sunny 77 25.1 68 20.1 74 74 Calm 29.94 1014 10 16.0934 0 0
11:55 am 11:55 Mostly Cloudy with Light Rain 77 25.1 69 20.3 75 75 WSW 5 7 29.94 1014 10 16.0934 0 0
12:15 pm 12:15 Mostly Cloudy 77 25.1 68 20.2 74 74 Calm 29.94 1014 10 16.0934 0 0
12:35 pm 12:35 Partly Cloudy 79 26 69 20.5 72 72 Calm 29.94 1014 10 16.0934 0 0
12:55 pm 12:55 Sunny 78 25.8 68 20.1 71 71 NW 3 6 29.94 1014 10 16.0934 0 0
1:15 pm 13:15 Mostly Cloudy with Light Rain 78 25.4 69 20.5 74 74 W 5 7 29.94 1014 10 16.0934 0 0
1:35 pm 13:35 Mostly Cloudy with Drizzle 78 25.4 69 20.3 73 73 W 5 7 29.94 1014 10 16.0934 0 0
1:55 pm 13:55 Mostly Cloudy with Light Rain 80 26.5 69 20.8 71 71 W 5 7 29.94 1014 10 16.0934 0 0
2:15 pm 14:15 Cloudy with Light Rain 78 25.4 69 20.3 73 73 W 6 9 29.94 1014 10 16.0934 0 0
2:35 pm 14:35 Cloudy 77 25.1 68 20.1 74 74 WNW 3 6 29.94 1014 10 16.0934 0 0
2:55 pm 14:55 Cloudy with Light Rain 77 25.1 70 21 78 78 N 5 7 29.91 1013 10 16.0934 0 0
3:15 pm 15:15 Mostly Cloudy with Light Rain 77 25.1 71 21.5 81 81 Calm 29.91 1013 10 16.0934 0 0
3:35 pm 15:35 Mostly Cloudy 77 25.1 69 20.8 77 77 Calm 29.91 1013 10 16.0934 0 0
3:55 pm 15:55 Partly Cloudy 77 25.1 69 20.4 75 75 Calm 29.91 1013 10 16.0934 0 0
4:15 pm 16:15 Partly Cloudy 77 25.2 69 20.4 75 75 Calm 29.88 1012 10 16.0934 0 0
4:35 pm 16:35 Partly Cloudy with Drizzle 78 25.3 69 20.7 76 76 WNW 3 6 29.88 1012 10 16.0934 0 0
4:55 pm 16:55 Partly Cloudy 79 25.9 70 21 74 74 Calm 29.88 1012 10 16.0934 0 0
5:15 pm 17:15 Partly Cloudy 78 25.7 69 20.4 73 73 WNW 3 6 29.88 1012 10 16.0934 0 0
5:35 pm 17:35 Mostly Cloudy 77 25.1 68 20.2 74 74 NNW 3 6 29.88 1012 10 16.0934 0 0
5:55 pm 17:55 Cloudy with Light Rain 77 25.1 69 20.7 77 77 NW 3 6 29.88 1012 10 16.0934 0 0
6:15 pm 18:15 Cloudy 77 25.1 69 20.7 77 77 Calm 29.88 1012 10 16.0934 0 0
6:35 pm 18:35 Mostly Cloudy 77 25.1 70 20.9 78 78 Calm 29.88 1012 10 16.0934 0 0
6:55 pm 18:55 Cloudy 77 25.1 67 19.2 70 70 N 7 11 29.88 1012 10 16.0934 0 0
7:15 pm 19:15 Mostly Cloudy 77 25.1 66 18.7 68 68 N 9 15 29.88 1012 10 16.0934 0 0
7:35 pm 19:35 Partly Cloudy 74 23.6 64 17.9 70 70 N 7 11 29.88 1012 10 16.0934 0 0
7:55 pm 19:55 Partly Cloudy 74 23.6 65 18.2 72 72 N 5 7 29.91 1013 10 16.0934 0 0
8:15 pm 20:15 Partly Cloudy 74 23.6 65 18.3 72 72 NNE 5 7 29.91 1013 10 16.0934 0 0
8:35 pm 20:35 Mostly Cloudy 74 23.6 66 18.7 74 74 Calm 29.91 1013 10 16.0934 0 0
8:55 pm 20:55 Cloudy with Drizzle 74 23.6 66 18.7 74 74 NNE 5 7 29.91 1013 10 16.0934 0 0
9:15 pm 21:15 Partly Cloudy 74 23.6 66 19.1 76 76 N 3 6 29.91 1013 10 16.0934 0 0
9:35 pm 21:35 Mostly Cloudy 74 23.6 67 19.3 77 77 N 3 6 29.91 1013 10 16.0934 0 0
9:55 pm 21:55 Mostly Cloudy 74 23.6 66 19.1 76 76 N 5 7 29.91 1013 10 16.0934 0 0
10:15 pm 22:15 Partly Cloudy 74 23.6 67 19.5 78 78 N 5 7 29.91 1013 10 16.0934 0 0
10:35 pm 22:35 Clear 74 23.6 67 19.5 78 78 N 5 7 29.91 1013 10 16.0934 0 0
10:55 pm 22:55 Clear 72 22.3 65 18.3 78 78 N 3 6 29.91 1013 10 16.0934 0 0
11:15 pm 23:15 Clear 71 21.6 64 18 80 80 N 3 6 29.91 1013 10 16.0934 0 0
11:35 pm 23:35 Partly Cloudy 71 21.6 65 18.1 81 81 NNE 5 7 29.91 1013 10 16.0934 0 0
11:55 pm 23:55 Cloudy 72 22.3 65 18.6 80 80 NNE 6 9 29.91 1013 10 16.0934 0 0

Powered by AerisWeather